Theta_e
320 320 319 325 326 327 328 330 330 328 328 327 329 329 328 329 330 329 329 329 329 329 329 329 329 329 329 329 330 329 328 328 329 328 327 327 328 331 330 329 329 328 328 328 328 328 328 327 326 326 327 327 327 327 326 326 325 325 324 324 324 324 324 324 324 324 324 324 323 323 323 324 323 323 323 322 322 322 321 321 321 321 321 321 320
318 316 317 319 323 326 330 330 331 330 329 329 328 328 329 329 329 328 328 326 327 327 329 328 328 329 329 330 329 329 329 328 328 327 327 327 328 332 329 328 327 327 328 328 329 328 327 327 327 327 327 327 327 326 326 326 325 325 324 323 323 324 324 324 324 323 323 323 323 323 323 323 322 322 322 321 321 321 320 320 320 320 320 320 320
317 316 317 317 320 324 328 330 330 330 330 329 328 329 328 330 331 329 327 326 325 326 328 328 328 328 330 329 329 329 329 329 329 328 327 326 327 329 330 329 327 327 327 328 327 327 327 327 327 327 326 325 326 326 326 326 325 324 324 323 323 323 324 323 323 323 323 323 323 323 322 322 322 321 321 321 321 321 321 320 320 320 320 319 319
317 316 317 318 319 321 325 329 331 329 331 330 329 330 330 330 331 329 329 327 325 327 328 328 326 327 328 328 328 328 328 328 328 327 327 326 325 326 329 329 328 327 327 327 327 327 327 327 327 327 327 326 326 326 326 326 325 325 324 323 323 323 323 323 323 323 323 322 322 322 322 322 321 321 321 321 320 320 320 320 319 319 319 319 319
318 321 324 316 318 321 323 328 328 329 330 331 331 329 330 331 329 330 327 325 324 325 326 326 326 325 327 327 328 327 328 328 328 327 326 325 324 324 326 329 329 327 327 325 325 325 326 327 326 326 327 327 327 326 326 325 325 325 324 324 323 323 323 323 323 322 323 322 322 322 322 321 321 321 321 320 320 320 319 319 318 318 318 318 318
318 317 316 316 317 319 322 324 327 329 330 330 330 329 329 329 328 328 335 326 323 324 324 323 324 325 326 326 326 327 327 327 327 326 325 324 323 323 323 324 325 326 328 326 325 324 324 325 326 326 326 326 326 326 325 325 325 325 324 324 323 323 322 322 322 322 322 322 322 322 321 321 321 321 320 320 319 319 319 319 318 318 317 317 317
318 317 316 316 316 316 317 318 319 325 329 330 330 328 329 328 328 326 324 325 322 324 322 323 323 323 324 326 325 325 326 327 326 325 324 323 322 322 322 323 323 324 325 324 332 326 325 325 325 325 325 325 325 325 325 325 325 325 324 323 324 323 322 322 322 322 322 322 321 321 321 321 321 320 320 319 319 319 319 319 318 317 317 317 317
318 317 316 316 316 316 316 318 321 324 327 328 329 328 326 326 327 326 324 324 322 322 322 321 322 323 324 325 325 327 325 326 325 325 324 322 322 322 321 321 322 322 326 324 324 326 326 326 325 325 324 325 325 326 325 325 325 325 324 324 323 323 323 322 322 322 321 322 321 321 321 321 320 320 319 319 319 318 318 318 318 318 317 317 317
318 318 317 316 316 316 317 318 323 324 326 327 328 327 326 326 325 327 324 324 321 320 320 321 321 323 323 323 324 326 325 325 325 324 322 321 320 320 320 319 322 327 326 323 321 322 326 326 327 326 325 323 324 325 325 326 325 325 324 324 324 324 323 322 322 322 322 322 322 322 321 321 320 320 320 319 319 318 318 318 318 317 317 317 317
316 316 316 317 316 316 317 320 322 324 325 325 325 325 325 326 325 323 325 323 321 320 319 320 320 321 323 322 323 324 324 324 324 327 322 320 320 319 320 319 321 321 323 322 320 321 320 323 327 327 326 325 324 324 325 326 326 326 325 324 325 324 324 324 322 322 322 323 322 322 322 321 320 320 321 321 320 319 318 319 318 318 318 317 317
316 319 318 318 315 315 317 319 321 321 323 323 323 325 325 323 324 322 326 324 322 321 320 320 320 321 321 322 322 323 323 322 324 325 321 321 320 321 318 319 319 320 321 321 320 320 320 321 321 321 327 327 326 325 325 325 326 326 327 326 325 326 326 325 323 323 323 323 323 322 322 321 321 320 321 321 321 320 319 319 319 318 318 319 320
315 316 317 316 315 315 317 319 320 320 321 322 321 323 324 324 321 322 324 325 324 322 322 322 321 321 322 322 321 322 321 322 322 321 321 319 320 322 319 318 319 319 320 321 320 319 319 320 323 321 320 324 327 326 326 326 325 326 326 327 327 326 326 326 326 324 324 324 324 323 323 323 323 322 321 321 321 321 320 320 320 320 320 320 320
317 314 318 323 315 314 315 316 319 320 320 319 320 320 322 324 324 328 324 323 323 323 322 322 320 318 320 320 320 321 322 321 319 319 319 319 318 320 320 319 319 318 320 320 319 319 319 318 319 319 320 320 322 327 326 326 326 326 326 327 327 328 327 327 327 325 324 324 324 324 324 324 324 323 323 323 321 321 322 322 321 321 321 321 321
320 316 314 312 314 315 314 315 317 320 321 320 324 329 323 322 323 322 320 323 322 323 321 320 318 317 317 316 320 320 320 319 318 318 317 317 317 317 318 318 317 318 319 319 319 318 318 318 318 319 319 319 319 321 324 327 326 326 326 326 327 327 328 328 328 327 325 324 324 324 324 324 324 324 324 323 323 322 322 322 322 322 323 322 322
318 320 313 313 312 312 313 314 318 323 316 315 317 319 319 321 322 323 320 320 322 324 323 322 319 317 318 318 313 314 319 318 317 316 316 316 315 314 316 316 317 317 318 318 318 318 317 317 317 317 318 318 318 319 321 324 325 326 326 326 326 327 328 328 329 329 328 325 324 324 324 325 325 324 324 324 324 323 323 322 323 323 323 322 322
315 318 317 313 312 312 312 314 319 320 317 315 316 316 318 319 320 322 320 321 318 321 324 321 319 318 316 315 313 312 311 314 315 317 316 315 314 313 314 315 316 316 317 317 317 317 317 316 316 316 317 317 317 318 319 320 322 326 327 327 327 327 327 328 329 329 329 328 325 324 325 325 325 324 324 325 324 324 324 323 323 323 323 322 322
313 313 319 313 312 311 312 314 316 318 317 316 317 317 318 318 319 322 320 321 317 316 320 321 321 323 319 313 312 312 312 313 313 316 316 313 312 312 313 314 314 315 316 316 317 317 316 315 315 315 316 316 316 316 318 319 321 323 325 328 328 328 328 328 328 328 328 328 327 325 324 325 325 325 325 325 325 324 324 324 324 324 324 323 323
312 312 315 315 312 312 313 316 317 319 318 317 315 317 317 318 319 320 319 318 320 317 319 321 322 324 320 320 320 316 313 313 314 314 317 316 314 311 311 312 314 315 316 316 316 316 316 315 315 315 315 315 315 315 316 317 318 320 322 323 328 329 329 330 329 329 328 327 327 326 325 325 326 325 325 325 325 325 325 325 325 325 324 324 324
313 311 312 318 312 312 313 315 316 316 323 316 317 318 317 318 320 319 319 320 318 318 317 318 320 322 322 321 320 318 315 317 315 311 313 316 316 315 312 309 311 312 313 314 316 316 316 315 315 314 313 314 314 314 315 315 317 319 322 324 326 328 329 330 331 331 329 328 328 327 326 325 326 326 326 326 325 325 325 325 325 325 325 325 324
312 311 312 314 315 311 312 314 314 314 321 316 318 315 317 318 320 317 318 320 319 319 317 316 320 317 320 321 321 320 317 317 314 318 313 312 315 316 314 311 309 310 311 312 314 315 315 315 314 314 314 312 313 312 313 313 314 316 320 325 326 328 328 329 331 331 331 331 330 329 329 328 327 327 327 327 326 326 326 326 326 326 326 325 324
311 311 314 314 322 314 312 312 313 315 323 316 315 315 317 316 316 317 317 317 318 318 318 317 317 319 319 319 319 319 318 318 318 315 316 313 313 313 316 313 311 310 309 310 311 313 315 316 314 315 315 314 312 312 312 312 312 313 316 321 325 328 329 329 329 330 332 332 332 331 331 331 331 330 330 329 330 329 328 328 327 327 326 325 325
311 310 311 312 316 318 312 312 313 314 321 314 314 315 314 315 315 315 315 315 316 320 319 318 317 319 318 319 318 317 317 317 316 317 315 315 315 314 310 309 310 314 312 309 309 309 311 314 315 314 314 315 314 312 312 311 312 311 312 317 321 325 328 329 329 329 330 331 332 332 332 332 332 332 331 331 331 331 330 330 328 327 326 326 326
311 313 311 310 310 320 314 311 311 321 321 314 314 314 314 315 314 314 316 316 315 316 320 319 318 318 317 318 319 319 319 316 317 315 317 314 311 311 313 310 311 311 314 312 312 309 309 310 311 312 314 314 314 313 313 313 313 312 314 315 319 323 326 328 330 330 329 329 331 331 331 332 332 332 332 331 331 331 331 331 329 328 327 327 327
311 311 311 311 313 313 318 315 315 313 314 313 312 313 314 314 314 314 314 315 316 318 316 317 316 316 316 317 318 319 318 318 317 316 316 316 314 314 311 309 309 309 311 312 312 311 311 309 309 310 312 313 313 314 314 313 313 315 315 317 318 321 324 326 328 330 330 329 329 331 332 332 331 331 331 331 331 332 332 332 331 329 328 328 328
311 311 311 310 312 312 310 312 312 313 312 311 311 312 313 314 315 315 314 315 316 316 316 317 316 316 317 316 317 316 317 317 316 314 314 313 313 312 309 308 312 310 311 308 314 311 312 312 310 309 309 310 311 312 313 314 314 315 317 317 318 319 322 324 326 328 330 330 330 330 331 332 332 331 331 331 331 331 331 332 332 331 330 329 329
312 311 312 311 312 312 313 311 312 311 313 311 311 312 311 313 313 313 314 315 313 315 316 315 314 314 314 315 314 315 316 314 314 312 312 312 311 311 311 308 307 308 307 309 309 310 314 311 311 311 310 309 309 310 313 312 314 315 317 317 317 318 320 322 324 326 329 330 331 330 330 331 331 332 332 331 331 331 332 332 332 331 331 330 330
313 313 314 313 312 311 311 312 311 310 312 313 314 313 313 313 312 311 312 312 313 314 313 314 314 313 313 314 315 313 314 313 313 314 313 315 313 311 311 310 310 305 308 306 305 307 311 313 310 311 311 313 312 311 310 311 312 314 316 317 318 317 318 320 323 325 326 328 330 330 331 330 331 331 332 332 332 332 331 332 332 332 332 331 330
315 314 314 314 312 311 312 313 312 311 310 311 311 312 311 311 311 311 311 313 313 313 313 313 315 314 315 313 315 316 315 314 314 314 313 314 314 311 313 311 308 307 306 308 307 308 308 310 311 311 311 311 311 311 311 312 311 315 317 317 317 316 316 318 320 323 325 327 328 329 330 331 332 331 332 333 333 332 332 332 331 331 331 331 331
316 317 316 315 314 313 312 313 313 312 311 312 311 311 310 312 311 309 309 310 311 309 309 313 313 313 313 313 316 317 315 314 314 315 314 313 313 313 313 313 311 308 306 304 307 308 310 306 309 312 309 309 310 310 309 310 312 313 313 315 316 315 314 314 317 320 323 325 327 328 329 330 332 333 333 333 333 332 332 332 331 331 331 331 331
317 318 318 317 316 319 315 314 314 313 312 312 312 311 311 310 310 310 310 309 310 310 309 309 309 310 313 312 313 314 315 313 314 314 314 314 313 312 312 312 312 310 307 305 307 306 310 309 307 310 311 308 307 307 307 309 313 313 313 312 313 314 313 312 312 314 318 321 322 324 326 328 330 331 332 333 333 333 333 333 332 332 331 331 327
319 319 318 318 318 317 317 316 316 314 313 313 313 312 311 311 311 311 310 308 308 308 308 308 308 308 309 310 310 312 313 313 313 313 313 312 312 312 312 311 311 312 310 307 305 308 307 311 310 308 309 310 308 310 309 307 309 311 312 313 312 313 313 314 313 312 312 312 314 316 318 323 326 328 330 331 333 334 334 334 333 332 331 327 322
319 319 318 319 319 318 318 318 317 317 315 314 314 313 313 312 312 312 311 309 309 309 309 308 307 308 307 307 308 308 310 310 311 312 312 313 313 312 312 311 311 311 312 309 306 306 307 309 311 311 309 310 310 309 310 310 311 314 313 312 311 313 313 314 312 312 311 310 310 310 310 315 321 325 326 328 329 332 334 333 330 327 325 323 321
320 319 320 320 320 320 319 319 319 318 317 316 315 315 314 313 313 312 312 311 310 310 310 310 308 308 308 307 308 308 308 308 309 309 309 310 311 312 312 311 311 310 309 309 307 306 308 310 310 310 311 310 309 310 309 310 310 309 310 310 310 311 310 311 312 310 310 310 309 308 307 308 311 316 320 323 325 323 320 319 318 319 322 323 321
320 321 321 321 320 321 319 319 319 318 318 317 316 315 314 313 313 312 313 312 311 311 312 310 311 310 310 309 309 309 308 308 308 307 308 308 308 309 309 310 310 309 310 310 308 307 305 308 309 310 309 308 308 309 310 311 310 309 308 308 308 309 309 311 311 311 309 308 308 308 307 307 307 307 309 312 313 311 311 311 312 313 315 316 316
323 322 323 323 322 321 320 321 319 318 318 316 316 315 315 314 313 313 314 313 312 312 311 311 311 311 310 310 310 310 311 309 309 309 310 309 308 308 308 309 309 309 308 309 309 306 305 306 308 308 310 308 308 310 309 310 310 308 307 307 307 307 308 310 311 310 308 308 307 307 307 307 306 306 306 307 307 307 308 308 308 309 310 310 310
324 323 323 323 323 321 320 320 320 319 319 318 317 315 314 314 314 314 315 315 314 314 313 312 312 312 311 310 310 311 311 310 310 309 310 310 310 310 309 309 309 309 309 309 309 309 308 306 308 307 309 310 311 309 308 308 308 308 308 308 308 307 307 308 309 309 308 308 307 307 306 306 306 306 306 305 306 306 306 306 307 307 308 308 309
326 326 325 323 322 322 321 321 321 320 320 320 319 317 316 315 314 314 314 314 315 315 315 315 316 315 313 312 312 312 312 310 310 310 310 310 310 310 309 310 309 309 309 310 310 310 308 307 307 309 309 308 309 310 309 307 308 307 307 307 307 308 309 309 309 308 309 308 308 307 307 307 306 306 305 305 305 305 305 305 306 306 306 306 307
324 325 325 326 325 323 322 322 323 323 322 321 320 320 319 319 318 317 316 315 314 314 314 315 315 315 315 315 316 315 313 312 312 312 313 312 312 312 312 312 311 310 309 309 309 308 307 306 308 309 309 307 307 308 309 308 307 307 307 308 308 308 309 310 310 309 310 309 309 310 308 307 306 306 305 305 305 305 305 305 305 306 306 306 306
324 323 322 323 324 325 325 326 326 326 326 324 323 323 322 322 321 320 319 319 318 318 318 317 316 316 316 316 315 315 315 314 313 313 314 315 315 315 314 313 313 312 311 310 309 307 305 305 306 307 307 309 308 307 309 307 307 306 306 307 309 311 311 310 309 310 310 311 311 310 311 310 310 310 306 305 305 304 305 306 306 307 307 307 306
322 322 322 322 322 323 323 323 324 325 324 322 320 320 321 322 322 321 321 320 320 320 320 320 320 319 319 318 318 317 317 317 316 316 317 317 317 315 315 313 312 312 311 311 310 309 308 306 306 306 308 308 310 308 307 306 305 306 306 306 307 309 310 311 311 311 313 312 313 313 312 311 311 310 308 307 307 306 306 307 307 308 309 307 306
322 322 322 322 321 321 321 321 321 320 318 315 313 312 314 316 318 319 320 320 321 319 319 319 320 320 321 321 321 321 321 321 322 322 322 321 319 316 316 315 314 313 312 312 311 311 309 308 307 308 308 309 310 309 309 308 306 309 312 310 307 309 310 310 312 313 310 311 312 314 315 316 316 317 317 316 317 312 312 309 310 309 308 306 305
321 321 321 320 319 319 318 316 315 313 311 309 307 302 303 307 312 315 316 316 317 317 317 318 318 319 319 320 320 321 322 322 320 316 312 311 314 318 318 317 315 314 313 313 312 311 310 310 310 311 311 312 312 312 310 311 311 311 310 309 307 310 310 310 313 316 316 314 313 314 317 319 317 317 317 316 314 312 311 311 311 309 307 304 304
319 319 318 315 314 314 314 313 311 310 307 305 300 296 296 297 306 312 314 315 316 316 316 317 317 318 319 320 320 321 321 320 319 313 310 309 308 308 308 309 314 316 315 313 314 314 313 312 313 312 311 311 312 313 312 313 313 313 312 312 312 311 310 309 308 314 315 314 313 311 314 313 314 315 314 311 310 311 310 310 304 304 303 302 302
317 316 314 312 312 311 310 308 307 307 305 304 296 297 296 295 298 306 312 314 315 316 316 317 317 318 319 319 319 320 319 314 312 309 310 308 305 305 306 307 307 306 307 312 314 313 313 312 311 312 312 311 312 313 314 313 312 312 313 313 313 312 311 310 310 310 312 313 312 310 312 309 309 309 307 307 309 309 308 305 303 303 302 301 301
314 312 311 310 309 308 307 306 305 304 304 302 296 298 297 296 296 301 309 314 314 316 316 316 315 314 314 315 315 315 312 311 307 304 305 306 307 308 309 310 311 308 300 300 301 310 312 310 310 310 311 310 309 311 310 307 308 308 310 310 311 311 311 310 311 311 311 310 311 311 309 306 307 306 305 307 308 307 307 305 303 302 302 301 301
311 310 310 309 307 306 306 305 304 305 304 304 296 297 297 296 296 299 311 314 314 312 311 310 309 308 307 308 309 308 307 305 304 302 303 303 305 308 310 312 312 311 307 302 303 304 307 308 309 308 308 305 306 305 306 305 305 305 306 306 308 308 308 308 311 310 308 308 308 308 307 304 306 306 304 307 308 307 306 303 302 302 302 301 301
308 307 307 306 305 305 303 303 304 304 305 298 296 297 297 297 300 306 314 313 312 310 309 309 308 306 304 304 304 303 303 302 302 302 303 304 306 308 310 310 309 308 307 307 307 307 307 308 307 306 304 304 303 303 303 303 304 306 307 307 308 308 309 311 310 308 307 307 306 307 302 303 305 306 304 306 307 308 309 306 303 303 302 301 301
305 305 305 305 303 303 303 302 303 302 302 296 295 296 297 297 302 312 312 311 309 308 307 306 306 306 304 302 301 301 301 301 301 296 299 307 307 308 310 310 309 308 306 304 298 299 303 303 304 303 303 301 299 301 300 300 303 304 306 308 309 307 307 307 304 305 303 306 305 306 303 302 303 304 305 307 308 306 307 308 304 303 302 302 301
303 303 303 303 303 302 303 303 301 301 302 299 294 295 296 297 304 310 310 308 306 304 304 304 304 305 306 303 301 301 301 300 297 293 294 307 307 308 308 308 307 307 306 306 299 296 295 294 294 295 294 295 295 295 295 295 299 303 306 305 302 303 304 303 302 302 302 304 304 303 303 302 302 301 304 305 305 304 306 307 307 303 301 301 301
302 302 303 303 303 303 303 303 305 300 300 302 295 294 294 297 303 305 305 304 302 302 302 302 302 303 305 306 303 300 299 299 294 293 293 304 305 305 306 304 304 303 303 303 303 302 298 297 296 295 295 295 296 297 297 296 296 301 302 301 301 302 301 300 301 300 303 305 304 303 304 301 302 301 303 305 306 306 307 307 307 306 303 303 301
302 301 305 301 301 301 301 303 307 300 298 301 297 293 295 297 301 302 302 301 302 300 300 302 301 300 301 303 302 299 300 297 292 293 293 301 303 302 303 303 302 301 301 302 300 299 299 301 301 301 301 300 300 300 300 298 298 300 300 300 301 302 300 298 297 298 302 303 304 302 303 301 301 302 301 302 300 306 307 305 306 306 306 306 307
Wind_Speed
3 3 4 4 3 3 2 3 2 2 3 3 4 4 4 4 4 2 2 3 2 3 3 3 3 3 3 2 2 2 2 3 4 4 3 3 4 6 9 9 8 9 9 9 10 10 10 9 8 9 9 10 10 10 10 10 10 10 10 10 11 11 11 12 12 12 11 11 11 11 12 11 11 11 11 11 10 10 10 10 10 10 10 10 10
4 3 4 4 4 4 3 3 3 2 2 2 3 3 3 4 4 3 2 2 3 4 3 4 3 3 3 2 2 1 1 2 3 3 3 3 3 3 8 8 8 7 8 9 10 8 8 9 9 9 8 9 9 10 9 9 9 9 10 9 10 11 11 11 11 11 11 11 11 11 11 11 11 10 10 10 10 10 10 10 10 10 10 9 9
4 3 3 4 4 4 4 3 3 2 2 2 2 3 3 2 4 2 1 1 3 3 4 4 4 3 3 3 2 1 0 1 2 2 3 3 3 3 5 8 7 6 6 7 8 9 9 9 9 9 9 8 9 10 10 9 9 10 10 9 10 10 10 10 10 10 10 10 10 10 10 10 10 9 8 9 9 9 10 10 10 9 9 9 8
4 3 3 4 4 4 4 4 3 2 3 3 2 2 2 3 3 2 2 2 2 3 3 4 4 3 3 3 3 2 1 1 1 2 2 3 3 3 3 4 6 6 6 6 6 7 8 8 9 9 10 10 9 9 9 10 10 10 11 10 10 10 10 10 10 10 10 9 8 9 9 9 8 9 9 8 8 9 9 8 8 8 8 8 8
3 3 4 4 4 5 4 4 4 3 3 3 3 2 2 3 3 2 2 3 3 3 3 3 3 3 3 2 3 3 2 1 1 1 2 2 3 3 3 3 3 5 6 6 5 6 6 7 8 8 8 9 10 9 9 9 10 10 10 10 9 9 8 8 9 9 9 9 9 8 8 7 8 8 8 7 8 8 8 8 7 8 8 7 7
5 3 4 5 4 4 5 5 4 4 4 4 4 3 2 2 4 2 1 3 4 5 5 4 3 3 3 2 2 3 2 2 2 2 2 2 2 3 3 2 3 2 2 5 6 5 6 6 6 7 8 7 8 8 8 8 9 9 9 9 8 8 7 7 8 8 8 8 8 7 7 7 7 7 7 7 7 7 7 7 7 7 6 6 5
2 5 4 5 5 4 3 3 3 4 4 4 4 3 3 3 2 3 0 1 3 5 6 5 5 5 4 3 3 3 3 3 2 2 2 2 2 3 2 2 2 2 1 0 2 5 6 6 6 7 6 7 8 8 7 7 7 8 8 8 8 8 7 7 7 6 7 7 6 7 6 7 6 7 7 7 6 6 6 7 7 6 5 5 5
2 0 6 4 5 4 2 1 2 3 4 4 4 4 3 2 1 3 2 1 3 4 4 5 4 4 4 3 3 3 3 3 3 3 2 2 2 3 3 2 2 2 2 2 1 2 5 6 6 6 6 6 7 8 8 8 8 8 8 8 8 7 6 6 6 6 6 6 6 6 6 6 6 6 6 6 6 6 6 6 6 5 5 5 5
3 0 4 5 5 4 3 3 2 4 4 4 4 4 4 3 1 2 3 3 3 5 5 5 5 4 3 4 4 4 4 4 3 2 2 3 3 3 3 3 2 3 2 2 2 2 4 5 7 5 6 6 6 6 7 8 8 9 8 8 8 7 7 6 5 5 6 6 6 6 6 6 6 6 6 6 6 6 5 5 5 6 5 6 6
2 1 2 3 5 5 3 4 4 4 4 4 4 4 4 4 2 1 3 2 3 5 6 5 4 4 4 4 4 4 4 3 2 3 3 3 3 4 4 3 2 2 2 2 2 2 2 4 5 7 7 7 7 6 7 7 8 9 9 9 8 8 8 7 7 6 7 7 7 7 7 7 7 7 7 6 6 7 6 6 6 6 6 6 6
2 1 3 2 5 5 4 4 4 4 4 4 4 4 4 3 2 1 3 1 3 5 6 6 5 4 4 4 3 4 2 2 2 2 3 3 3 4 2 3 2 3 3 3 2 2 3 2 1 3 3 8 8 8 8 8 8 9 10 10 9 9 9 9 9 8 8 8 8 8 9 8 8 8 8 7 7 7 7 7 7 8 7 7 7
3 2 2 2 2 5 5 4 4 5 5 4 4 4 5 4 2 2 2 3 2 2 5 5 3 2 1 2 2 2 3 2 3 3 2 4 4 3 4 2 3 3 3 3 2 3 3 3 2 1 1 4 9 10 9 9 9 10 10 10 11 11 10 10 10 10 10 10 10 9 9 9 9 9 9 8 8 8 8 8 8 8 8 8 7
2 3 4 2 2 2 5 4 3 4 4 4 3 3 2 3 3 2 2 2 4 4 3 5 6 3 3 1 3 2 3 2 4 3 4 3 3 4 3 3 4 4 4 2 3 3 3 3 3 2 2 2 4 7 10 10 10 10 11 11 11 12 12 12 11 12 12 11 11 11 10 10 10 10 10 10 10 10 10 9 10 10 9 9 8
2 2 2 3 1 1 3 5 4 4 4 3 3 3 3 4 4 3 2 3 4 4 2 5 1 3 3 0 3 2 1 2 4 5 5 4 4 4 4 5 5 5 3 3 3 3 4 3 3 3 3 2 3 2 3 6 8 11 11 12 12 13 13 13 12 12 13 12 12 12 11 11 11 11 11 11 11 11 11 11 11 11 11 11 10
2 3 4 2 2 2 2 3 5 4 4 4 3 3 2 4 5 5 2 2 2 4 7 3 3 1 2 3 1 2 3 2 3 6 6 5 4 5 5 6 6 4 3 3 3 4 3 3 4 4 4 4 3 3 3 4 4 9 12 12 12 13 14 14 14 13 13 13 13 13 12 12 12 12 12 12 12 12 12 12 12 12 12 11 11
2 2 2 3 3 2 1 2 4 4 5 4 2 2 2 2 3 3 4 2 1 2 4 6 5 6 2 3 2 2 3 4 6 4 5 6 5 6 5 6 4 4 3 5 4 3 4 3 5 4 4 4 3 3 4 3 6 9 13 13 13 14 14 15 15 15 14 14 14 14 14 14 13 13 13 13 13 13 13 13 12 12 12 12 12
2 2 2 4 3 3 3 1 2 3 4 4 2 1 2 2 3 4 3 3 3 2 0 4 5 2 5 3 2 1 3 3 1 4 1 4 7 6 5 6 5 4 5 6 4 4 4 4 5 4 5 4 4 4 4 5 5 5 7 13 15 15 15 15 16 16 15 15 15 15 15 15 15 14 14 14 14 14 14 13 14 13 14 13 13
3 3 3 4 5 4 4 4 3 2 3 4 4 2 1 2 3 3 3 2 1 2 2 0 1 3 3 2 3 3 2 2 1 3 2 4 2 3 6 6 5 5 5 6 6 5 4 5 5 6 5 5 5 5 5 5 5 5 5 7 13 15 16 17 17 17 16 16 16 16 16 16 16 15 15 15 15 15 15 15 15 14 15 15 15
4 4 4 3 4 5 5 5 4 3 2 4 3 2 2 1 1 2 2 3 3 2 4 3 2 1 3 3 2 1 2 3 3 1 4 2 3 4 5 5 6 6 7 7 7 5 5 5 6 6 6 5 5 5 5 6 8 9 12 13 15 16 17 18 18 18 18 18 17 18 18 18 17 17 16 17 16 16 16 16 16 16 16 16 15
5 3 3 2 3 4 4 4 5 4 3 3 2 3 3 1 2 2 3 4 4 3 4 2 3 3 0 3 4 2 2 2 3 3 2 3 4 1 3 4 4 6 7 8 7 7 6 6 7 6 6 6 6 6 6 6 6 8 8 16 17 18 19 18 19 19 19 19 19 19 19 19 19 18 18 18 17 17 17 17 17 17 17 16 16
3 2 1 3 2 4 5 4 4 4 2 3 3 4 3 2 2 2 3 3 4 3 2 4 4 6 3 3 2 4 1 0 2 3 2 2 5 4 4 2 2 5 7 6 6 6 7 7 6 6 6 6 6 7 6 6 7 7 10 16 18 18 19 20 19 19 19 20 20 21 21 20 21 21 20 19 19 18 18 18 18 18 18 17 17
3 3 2 2 1 2 4 5 5 5 2 4 4 4 4 4 4 4 4 4 4 5 5 4 4 5 4 3 3 1 2 2 3 3 1 3 6 5 3 3 4 4 2 6 8 7 7 5 6 7 7 6 7 7 7 7 7 7 10 17 18 19 19 20 20 20 20 20 21 21 22 22 21 22 22 21 21 20 20 19 19 18 19 19 19
2 3 3 2 2 1 2 3 2 2 2 3 4 4 4 4 4 3 4 5 4 4 4 4 4 4 5 5 6 6 6 6 5 5 5 4 2 5 5 5 5 5 5 3 4 5 5 4 6 6 7 7 6 6 7 8 9 11 15 15 19 20 20 20 20 21 21 21 21 21 22 22 22 22 22 22 22 21 21 20 20 18 18 19 20
2 4 4 3 2 2 1 2 2 2 3 4 4 4 4 4 4 2 2 3 3 4 3 3 5 4 5 5 6 5 4 5 5 4 5 5 5 5 5 1 2 5 5 5 3 4 5 6 6 6 6 6 6 6 6 7 8 16 13 16 18 20 20 21 21 21 21 21 21 22 22 23 23 23 22 22 22 22 22 22 21 20 19 19 20
5 5 6 6 4 3 4 4 4 4 4 4 4 4 5 5 4 4 3 3 4 4 4 5 5 5 5 4 4 4 6 5 3 4 3 3 4 5 3 1 5 3 2 1 3 2 4 5 6 6 6 6 6 5 6 7 7 11 15 10 17 18 20 20 21 21 22 21 22 22 22 23 23 23 23 23 23 22 23 22 22 21 20 20 20
6 7 7 5 5 6 5 5 5 5 5 5 5 5 4 5 5 5 5 4 4 5 5 5 4 4 2 3 4 5 5 3 4 4 4 4 2 5 4 1 2 3 2 2 1 3 3 3 4 5 4 6 6 6 6 7 7 11 12 9 10 17 19 20 21 22 22 22 22 22 23 23 23 23 23 23 23 23 23 23 22 21 21 21 21
7 7 5 5 6 5 6 5 5 5 5 5 4 4 4 4 5 5 4 4 5 5 4 5 4 5 5 5 4 3 4 4 4 5 4 5 5 5 4 5 4 1 4 2 2 4 6 4 3 4 6 6 6 6 7 6 6 8 9 8 7 11 15 19 20 22 22 23 23 23 23 23 23 23 23 23 23 23 22 21 21 22 22 22 21
6 5 6 6 6 6 5 6 6 5 5 6 5 5 5 5 4 3 5 3 4 5 5 5 6 6 6 4 4 5 4 4 5 5 5 5 5 4 4 4 4 7 1 5 3 5 3 4 3 5 5 5 5 4 3 4 6 8 7 6 6 7 13 17 19 21 22 23 23 23 23 23 24 24 24 24 24 23 21 21 22 22 22 22 22
6 5 5 5 6 6 6 6 6 5 5 5 5 5 5 5 5 5 5 4 4 6 5 5 5 5 4 6 6 5 5 4 4 4 5 4 4 4 4 5 5 5 5 5 5 5 3 5 4 3 3 3 5 3 3 4 5 5 5 5 7 7 11 16 18 20 21 22 22 23 23 24 24 24 24 24 23 22 21 22 23 23 23 23 22
5 4 4 5 5 5 5 6 5 5 6 5 5 5 5 5 6 5 5 4 5 4 4 5 5 5 5 4 4 5 5 4 5 5 5 6 5 5 5 5 5 6 5 6 8 5 5 3 5 5 3 4 3 4 4 5 7 7 5 6 6 7 13 15 16 17 18 19 19 20 22 24 25 25 25 23 22 23 24 24 24 24 24 22 21
4 4 5 6 6 6 5 5 5 5 5 5 5 5 5 5 5 5 4 4 4 5 5 5 4 4 5 6 4 5 3 4 4 4 4 4 6 5 5 4 5 6 6 5 8 4 4 5 6 6 6 6 4 4 3 4 4 5 4 5 6 10 13 11 14 14 15 16 17 17 18 21 23 24 25 25 24 25 25 25 24 22 22 21 20
6 7 7 6 5 5 5 5 5 5 5 5 5 6 5 6 5 5 4 5 5 6 5 4 4 5 5 6 6 6 5 4 5 5 5 5 4 5 5 5 6 6 6 5 7 11 4 6 6 5 7 6 4 5 6 6 6 8 6 7 8 10 7 7 12 14 14 15 16 16 17 18 20 23 24 25 26 26 24 22 21 21 21 21 21
5 5 6 5 4 3 5 5 6 5 5 5 5 5 5 6 5 5 4 4 5 5 4 5 4 5 5 6 6 6 4 5 5 5 5 5 4 5 4 5 6 5 6 6 7 10 7 5 6 6 4 3 5 6 7 7 7 6 5 6 7 7 6 6 7 12 14 15 15 16 17 17 18 19 20 21 22 22 21 20 19 18 20 20 20
4 5 3 3 4 3 6 5 6 6 5 6 5 5 5 6 7 5 5 5 5 5 4 6 4 4 5 6 7 6 6 7 6 6 6 5 6 5 5 6 7 7 7 6 8 6 10 4 6 3 4 4 6 3 6 7 7 5 7 7 5 6 6 6 6 7 14 15 15 16 16 17 17 18 18 19 20 20 20 20 20 20 18 16 16
3 4 4 3 4 4 6 5 5 5 5 6 5 5 6 6 6 4 3 4 5 5 5 6 7 4 5 6 7 6 3 5 7 7 5 6 5 6 5 5 6 6 6 7 5 7 9 9 4 6 5 3 6 6 5 6 6 4 5 7 7 5 5 7 7 6 12 14 15 15 16 17 17 17 17 18 18 19 19 20 20 20 19 17 15
3 2 4 4 4 5 4 3 4 5 5 4 5 5 6 5 5 5 6 5 5 6 7 7 7 5 6 6 7 5 3 5 7 6 5 5 5 6 6 5 6 7 4 5 7 7 6 8 4 4 5 6 7 5 4 4 6 6 6 7 5 6 7 6 7 7 9 14 15 15 15 15 16 16 17 17 18 18 18 19 19 18 19 19 19
3 2 2 2 3 3 4 5 4 4 4 4 3 3 4 4 4 6 7 7 8 8 9 8 7 9 8 7 7 5 5 7 7 6 5 6 4 4 6 6 7 5 4 6 7 6 6 7 7 5 5 5 5 7 4 5 5 6 6 6 7 7 7 7 6 7 11 15 14 14 15 15 16 16 17 17 17 17 17 17 17 17 16 17 17
1 1 1 2 3 4 4 4 4 3 2 2 3 2 2 3 4 4 5 5 6 6 7 7 8 9 9 9 8 6 6 7 8 7 5 6 6 6 8 9 5 6 7 6 6 6 7 8 8 8 4 5 5 6 6 3 5 6 6 5 5 6 7 7 6 5 5 6 6 7 9 11 14 17 17 16 16 16 16 15 14 14 14 14 13
2 2 1 2 2 3 2 2 2 2 3 4 3 3 2 1 2 3 4 5 6 6 6 6 7 7 8 7 7 7 7 7 8 8 7 7 6 8 8 8 5 6 7 6 4 6 7 8 6 7 6 4 4 8 6 3 4 4 6 8 8 6 5 6 7 5 4 6 9 12 10 10 11 10 11 12 13 14 15 14 11 13 14 14 15
2 2 2 4 4 3 2 1 0 1 3 4 3 2 1 3 3 4 4 4 4 4 3 3 4 5 6 5 6 6 7 7 7 6 5 6 5 7 7 5 6 6 6 5 5 5 6 5 6 6 4 5 4 6 6 4 5 5 5 6 7 9 10 4 5 7 5 4 6 6 6 8 9 10 11 10 11 11 10 9 12 13 14 13 13
5 5 6 6 7 6 5 5 5 5 6 6 5 5 4 4 3 4 4 4 4 3 2 2 2 3 2 3 4 5 5 6 7 6 5 6 6 7 6 5 6 6 6 5 5 4 5 5 6 5 6 7 7 7 6 5 7 8 5 4 7 7 8 10 9 5 5 8 7 6 5 6 4 4 4 3 1 1 4 7 6 9 10 10 10
7 7 8 8 7 6 6 6 5 5 5 4 8 11 9 5 5 3 3 3 3 3 3 4 3 2 3 3 3 5 5 5 6 4 2 3 4 5 5 4 4 4 5 4 4 4 4 5 7 7 7 7 7 6 6 7 6 5 6 6 9 8 7 10 8 5 6 7 7 8 5 2 2 3 3 2 3 3 2 1 1 2 3 5 7
8 8 7 7 6 5 5 5 5 5 5 7 12 8 8 8 5 3 3 3 3 3 3 3 3 4 3 2 2 3 4 4 5 7 7 8 8 7 5 3 3 4 5 5 6 4 5 6 6 6 7 9 9 7 7 8 6 6 6 6 6 6 6 7 10 5 0 4 5 4 4 3 1 2 2 3 3 3 3 2 4 2 2 4 5
6 6 7 6 5 5 5 6 6 6 5 11 7 6 3 4 4 2 2 3 3 2 2 2 2 2 3 4 4 4 5 8 5 5 6 8 9 8 7 5 3 2 4 4 5 5 5 6 5 6 6 6 6 6 6 6 6 6 6 6 7 8 8 8 6 7 2 5 4 3 3 5 4 3 4 4 4 4 4 6 7 6 5 4 4
6 7 6 6 6 6 6 6 6 6 5 10 8 8 7 4 3 2 2 2 3 4 4 6 6 6 5 5 4 5 5 10 8 7 6 6 7 7 7 5 5 8 6 1 5 6 4 4 4 4 4 5 6 4 6 7 6 7 6 6 6 6 7 8 6 5 4 6 4 5 2 4 5 2 5 4 4 4 5 6 8 6 5 4 4
6 5 5 6 5 5 5 5 6 6 6 10 10 11 11 10 7 3 3 4 6 6 6 6 5 5 5 5 4 5 6 7 7 8 8 6 6 6 5 5 6 6 7 8 8 4 1 2 2 3 4 3 2 4 5 5 5 5 6 6 6 6 6 7 7 5 4 7 4 3 2 5 5 4 5 4 3 3 3 3 5 4 4 3 2
5 6 5 6 4 4 4 4 4 6 6 10 11 12 12 12 11 5 6 5 5 6 7 6 6 7 6 5 5 5 6 7 8 9 6 5 5 5 5 6 6 5 6 6 6 5 5 5 4 4 3 3 3 4 5 5 4 5 5 6 6 6 5 6 2 4 5 7 7 3 3 4 5 3 4 3 3 2 3 2 4 4 4 4 5
5 5 5 5 6 6 5 6 6 7 6 10 10 11 11 12 10 6 5 6 6 6 6 7 7 6 6 6 6 6 7 7 11 12 10 6 6 6 6 5 5 4 5 5 6 7 6 4 4 3 3 3 4 4 6 6 5 5 4 2 3 5 4 3 4 5 6 7 7 4 2 3 4 2 2 2 2 3 3 3 5 7 6 4 2
6 6 5 5 5 6 7 7 7 6 6 8 9 8 9 10 7 5 5 5 5 7 7 6 6 7 7 7 6 6 6 7 11 12 13 8 6 5 5 5 4 4 3 3 5 6 5 6 6 6 6 7 7 6 7 9 8 6 3 5 6 5 4 4 4 5 6 5 6 5 1 2 4 3 1 2 2 3 4 4 4 5 6 4 2
6 4 4 5 5 5 6 6 5 5 5 6 8 7 7 8 6 4 3 4 4 4 4 4 4 5 7 11 8 6 6 6 8 10 12 8 6 6 6 5 5 4 4 5 4 4 6 5 7 5 5 6 6 5 6 8 8 7 6 6 4 3 4 3 3 2 2 3 6 5 1 2 2 3 1 2 2 1 2 2 4 4 4 3 3
3 3 4 4 4 4 4 4 5 5 5 5 7 7 6 6 6 5 4 4 5 4 3 3 2 2 2 5 7 5 4 3 4 6 8 7 5 5 4 4 3 4 4 5 5 5 5 4 4 5 3 6 5 4 4 5 5 6 5 3 3 3 4 2 1 1 1 2 4 6 1 3 3 2 2 1 2 2 0 2 4 4 4 3 2
Wind_Direction
160 171 143 169 177 165 138 138 114 105 108 82 105 111 97 109 104 118 145 157 184 181 154 135 132 122 126 120 81 72 62 80 89 87 71 57 74 101 102 105 110 116 120 119 118 125 123 121 116 116 116 119 117 112 113 113 111 108 107 105 108 109 114 115 116 117 117 115 116 113 110 107 106 108 110 113 112 111 107 100 95 91 90 88 91
171 153 159 186 187 191 169 172 146 131 111 113 104 107 120 106 113 120 165 194 204 206 165 145 147 140 135 134 105 70 75 92 94 92 95 77 59 94 108 110 115 119 125 129 127 122 120 121 125 124 121 122 123 122 119 115 112 109 109 118 119 119 121 121 119 120 118 117 116 118 119 119 120 117 114 115 111 102 105 102 97 93 90 91 92
141 152 133 154 177 179 195 164 170 141 125 120 107 117 115 118 111 140 251 211 208 194 163 156 148 156 155 139 125 111 96 78 100 95 93 97 80 75 116 120 119 126 123 122 126 130 132 131 131 128 130 132 132 131 128 125 124 123 121 126 128 127 122 125 125 120 121 121 123 122 117 114 117 121 118 112 112 112 102 104 104 101 98 98 99
140 144 129 139 156 172 172 171 195 146 133 126 119 124 132 116 114 135 239 53 147 153 146 149 160 162 154 143 134 142 177 158 129 102 98 103 96 88 87 125 130 132 134 131 133 133 134 133 135 138 140 142 138 135 135 135 134 133 136 138 133 132 138 134 128 126 122 124 120 120 126 131 124 120 116 111 106 107 109 104 104 109 113 108 103
161 142 123 108 122 139 147 176 185 172 150 143 133 125 106 112 99 110 101 78 106 130 123 118 146 161 159 150 145 165 179 179 161 114 131 117 111 99 91 101 114 143 143 142 139 136 138 146 144 144 146 144 146 146 142 141 140 139 138 142 139 137 140 135 133 131 130 132 134 132 126 120 119 116 117 119 115 114 116 115 117 119 120 120 113
136 123 109 95 94 122 160 177 186 184 164 153 155 151 180 158 124 105 158 109 150 159 144 149 156 151 171 153 170 186 174 180 188 184 143 154 121 112 111 97 112 94 128 156 159 151 155 152 153 155 153 149 148 146 149 150 147 143 140 140 145 142 148 144 136 138 136 134 130 129 130 126 130 133 134 132 131 128 128 129 126 129 127 129 142
133 131 106 103 96 94 107 183 193 198 175 168 154 152 166 208 135 108 345 81 165 169 164 161 160 177 177 168 191 191 193 194 179 195 183 162 147 133 117 124 116 129 121 3 191 175 171 171 163 168 168 164 158 158 157 155 152 146 147 154 152 161 157 148 148 145 136 136 137 139 138 139 139 144 145 144 142 144 145 150 143 140 148 138 136
119 228 110 103 102 93 96 178 150 150 161 152 150 162 166 150 69 124 126 277 156 172 162 157 171 174 173 176 191 205 204 201 197 195 193 159 183 161 144 146 144 153 176 140 225 294 208 184 183 175 182 181 171 171 170 167 166 162 164 165 166 171 166 160 159 157 150 152 155 150 151 159 161 162 161 158 156 154 155 152 156 158 161 171 166
136 310 118 114 95 80 21 5 79 136 150 157 158 153 150 157 155 119 133 184 192 158 167 164 169 176 170 183 202 206 211 211 196 186 156 201 209 203 168 170 180 201 166 163 252 243 297 236 198 200 191 196 195 190 185 181 177 171 176 179 178 181 174 176 171 164 164 166 169 170 173 178 180 177 172 172 172 172 173 171 171 176 180 182 191
114 96 79 109 109 103 61 32 81 114 127 130 132 126 128 148 194 84 127 113 202 161 172 167 158 161 181 199 212 220 224 222 197 193 192 217 230 231 206 174 180 206 206 195 211 272 254 313 289 226 211 204 205 208 204 203 190 186 185 191 191 188 185 182 185 185 186 180 183 188 189 187 190 188 188 189 189 189 190 192 192 196 195 191 193
128 122 100 75 101 94 72 51 88 105 114 115 123 127 125 103 139 94 72 109 212 183 167 161 161 165 188 209 213 240 272 244 222 220 201 224 232 238 239 206 199 211 208 210 201 207 261 248 296 349 239 220 213 214 212 214 209 203 199 195 199 200 194 191 191 197 198 197 197 199 196 198 197 200 200 201 201 204 203 203 205 208 214 217 231
102 72 64 54 73 107 90 63 100 118 117 115 134 165 164 152 135 147 86 59 32 102 123 113 76 91 280 283 274 288 255 253 242 236 220 224 228 234 234 223 220 225 223 207 203 200 219 236 259 275 279 277 233 219 221 217 217 215 212 207 203 205 206 205 201 202 206 207 206 204 205 206 207 207 210 210 212 214 213 211 214 211 214 221 231
109 101 96 75 28 43 103 66 64 84 94 125 163 185 169 137 139 112 133 113 66 20 22 110 124 66 44 13 300 272 273 260 262 260 248 246 239 237 235 238 230 234 229 209 206 207 211 219 230 224 244 213 294 256 231 226 223 223 222 217 213 211 212 214 213 206 210 213 213 212 212 213 215 216 218 219 218 221 223 223 220 223 227 232 241
121 122 112 120 110 42 91 119 89 72 77 94 112 101 108 129 133 107 29 146 135 135 48 87 345 161 134 342 346 339 264 257 262 253 247 242 234 239 234 235 235 232 233 222 225 219 220 217 214 225 222 212 233 268 287 244 234 230 232 229 223 219 218 219 219 215 211 215 217 218 217 218 220 223 221 224 224 224 225 231 231 233 237 243 244
162 154 135 134 144 114 118 119 112 116 82 47 48 59 82 144 166 156 133 43 116 138 153 149 187 30 69 106 278 294 315 322 257 249 241 235 223 236 238 239 241 244 242 241 232 232 233 222 225 220 221 225 211 229 246 263 270 247 239 239 235 231 226 224 224 223 218 216 220 221 222 222 224 225 225 226 226 225 227 229 232 237 243 240 249
223 207 133 150 151 151 107 69 113 125 127 118 94 82 78 107 145 153 123 134 25 160 155 157 141 153 174 224 218 138 329 267 258 268 214 230 223 238 237 246 252 257 245 249 238 237 245 233 233 224 224 219 220 222 228 223 256 262 248 241 242 239 236 232 230 229 226 219 220 223 224 225 226 226 226 226 226 227 227 229 234 239 241 245 248
221 209 183 169 165 156 137 146 93 109 115 117 129 169 184 202 167 137 165 158 217 268 277 164 183 203 141 108 27 354 240 256 17 278 207 211 231 232 239 250 248 237 240 250 238 231 228 236 237 237 227 219 218 218 222 231 237 239 251 249 243 241 240 239 236 234 232 227 221 223 226 226 227 227 227 227 228 229 230 234 237 239 241 244 247
244 215 204 160 168 170 151 135 120 104 110 115 131 105 94 138 207 164 162 142 165 136 280 237 229 156 149 141 165 182 195 253 80 288 317 223 290 228 233 239 238 238 238 247 243 236 218 232 223 236 231 231 226 223 218 225 226 231 229 239 248 245 241 241 239 237 235 232 227 224 226 228 228 228 228 229 231 232 235 237 240 242 244 246 249
240 225 213 197 159 168 165 162 160 165 136 110 121 159 167 189 132 139 156 143 113 151 216 261 4 271 202 186 161 168 165 136 240 70 327 322 230 247 244 232 230 233 237 238 239 234 227 222 226 227 226 225 225 226 224 227 231 231 234 236 237 241 244 242 242 240 238 234 231 227 226 228 230 231 231 231 232 234 236 238 239 241 244 247 248
240 235 236 208 156 173 174 165 156 187 155 147 161 164 139 64 137 139 134 145 157 177 228 174 187 273 144 230 235 154 144 90 136 227 197 275 304 280 236 245 232 234 235 243 231 229 227 217 224 223 223 225 221 223 224 223 225 231 234 234 235 236 237 242 243 242 241 239 236 233 231 231 232 234 235 235 236 236 236 238 239 241 243 244 243
264 295 282 206 176 163 172 166 158 175 166 149 149 161 160 145 141 164 170 167 182 172 146 203 188 233 240 268 205 228 193 31 148 131 193 194 273 257 280 334 248 246 241 233 237 224 223 220 216 222 221 222 218 222 221 221 219 221 231 232 234 234 234 236 239 242 243 243 241 238 237 237 237 238 239 240 241 241 240 239 239 240 241 241 241
295 309 331 299 216 142 162 186 173 157 159 172 166 161 156 164 189 193 190 190 193 178 197 210 198 234 216 205 177 110 206 260 212 174 121 207 247 274 211 255 291 288 242 235 234 233 228 221 218 221 223 222 217 219 217 222 221 222 227 228 231 233 234 235 235 237 240 243 245 243 241 240 240 240 241 241 242 244 244 242 240 238 238 239 241
309 291 289 267 271 185 161 186 171 165 142 154 195 205 187 182 167 160 179 201 185 191 209 216 202 218 225 206 215 201 206 207 218 204 204 207 211 262 253 215 234 277 272 270 261 251 239 222 228 228 226 226 220 218 220 223 225 228 229 227 230 232 233 234 235 235 237 239 242 245 246 245 243 243 243 244 244 244 244 243 242 238 237 238 240
274 274 274 265 223 200 216 172 160 154 200 198 210 210 180 152 140 151 176 182 159 163 164 200 211 218 230 215 229 230 236 218 222 190 186 217 203 241 256 299 237 227 285 308 254 238 230 224 225 230 230 233 231 218 227 230 234 235 233 230 230 233 236 235 236 236 237 238 239 241 243 245 246 245 244 244 244 243 242 242 242 241 239 239 239
238 233 246 233 216 207 221 195 198 202 200 169 205 198 168 152 149 162 166 176 191 172 178 207 187 204 231 230 231 223 230 234 189 189 194 159 185 232 255 181 257 288 285 346 292 296 231 231 230 229 232 229 236 223 223 228 232 235 231 233 233 237 238 241 241 240 239 239 239 240 241 241 243 245 246 244 244 243 243 243 243 242 241 240 240
223 223 226 213 204 212 206 206 200 195 188 186 177 188 173 162 162 159 184 189 156 173 191 192 188 203 173 194 211 210 235 206 191 158 166 145 146 209 241 236 180 257 290 295 318 288 285 255 242 236 233 231 235 228 223 229 236 241 231 234 233 235 238 241 244 246 246 245 243 242 241 241 242 243 244 245 245 244 244 244 244 243 242 241 241
217 229 218 214 219 213 212 203 198 195 195 194 192 181 181 170 181 192 183 171 168 160 179 177 194 196 195 196 196 220 231 199 182 208 174 194 182 181 172 259 296 343 272 279 304 222 248 283 234 224 223 227 228 230 231 233 245 248 227 229 238 229 233 239 243 245 246 246 247 246 244 243 243 242 242 243 244 244 245 244 243 244 244 243 243
229 227 225 212 219 219 215 219 206 195 194 197 194 186 186 183 202 190 208 181 159 168 178 180 198 192 198 181 175 231 218 197 204 210 205 204 197 152 165 166 229 282 325 281 282 265 232 237 289 240 232 232 239 237 249 240 241 244 232 229 230 238 235 237 240 243 244 246 247 248 247 246 243 242 242 241 241 242 242 243 243 243 244 244 244
234 224 230 221 225 217 217 223 216 212 204 197 193 192 187 195 198 203 225 209 192 204 186 191 207 185 180 182 198 220 229 195 205 208 209 195 201 191 179 198 183 240 278 279 256 248 266 205 224 286 242 253 253 239 242 235 238 229 217 215 221 224 234 233 237 239 243 246 248 249 249 248 247 245 244 243 242 241 240 241 243 244 245 245 244
222 228 218 230 232 233 230 231 224 213 219 217 199 192 190 207 209 210 211 177 212 249 229 216 219 197 198 197 206 220 221 189 217 212 202 207 198 201 204 204 179 210 208 254 276 193 244 252 206 244 245 247 223 245 206 231 242 236 220 220 221 230 238 237 236 239 242 245 247 248 250 250 250 250 248 246 243 242 242 242 243 243 243 243 242
226 222 221 223 218 222 222 241 234 226 218 225 218 207 196 217 216 220 179 169 194 229 235 215 229 195 215 225 221 237 215 224 234 230 225 204 214 202 213 182 194 206 210 206 276 255 170 239 238 234 240 249 238 248 243 235 252 237 229 226 234 242 250 256 253 245 243 246 246 248 247 249 251 253 254 254 251 248 247 245 244 243 242 241 240
219 212 210 211 217 224 222 222 235 236 234 234 217 221 207 219 222 222 188 166 193 231 231 208 216 211 214 234 231 232 220 219 232 229 224 227 211 206 196 195 208 210 200 211 232 271 204 236 244 250 233 257 255 258 261 261 247 246 248 247 254 261 256 252 260 257 251 248 248 248 247 248 249 250 252 253 255 255 254 251 247 244 242 240 238
217 217 214 210 189 213 234 223 226 227 219 234 232 227 217 222 225 230 210 188 214 237 223 232 204 207 220 231 236 225 191 214 232 230 230 219 210 224 207 200 216 196 191 201 236 261 273 227 255 245 253 230 267 216 242 251 263 254 249 246 249 245 250 249 255 259 255 251 248 247 247 246 246 247 248 250 251 254 257 259 256 250 244 241 239
196 216 186 131 176 183 250 219 220 225 228 228 224 222 240 232 224 201 213 209 221 250 245 268 240 211 209 228 251 234 186 218 216 216 212 200 205 203 211 201 211 208 196 193 223 249 268 278 279 243 242 198 252 198 231 249 246 242 257 255 236 230 243 245 245 251 252 252 249 248 247 246 245 244 245 247 248 249 250 252 253 254 254 254 253
215 207 196 186 173 212 235 242 234 231 223 221 217 212 220 224 248 266 250 216 211 233 241 243 249 228 221 234 252 254 203 226 232 232 210 212 195 210 218 202 223 226 195 209 213 241 258 271 225 274 267 219 225 257 222 242 262 237 254 257 254 247 233 242 247 247 256 251 250 248 247 247 246 245 244 244 245 246 247 247 249 250 251 247 242
222 180 165 186 205 212 220 231 228 231 221 213 223 210 225 218 201 252 266 264 253 250 252 263 265 260 252 255 253 252 246 249 259 252 241 230 220 219 224 205 221 237 178 196 220 238 255 269 257 229 278 292 270 249 253 262 274 274 251 271 263 250 254 239 241 250 254 253 251 251 252 249 249 248 246 246 245 245 245 246 247 247 246 244 245
197 195 230 212 206 209 206 208 222 232 232 201 208 237 234 241 224 207 215 225 236 237 242 249 260 263 262 253 261 264 255 249 256 256 246 241 233 231 247 241 222 232 204 212 222 213 248 263 284 251 232 257 271 292 285 284 271 257 262 245 267 270 261 250 243 246 254 262 261 255 252 252 252 251 250 248 248 248 248 247 247 247 249 247 247
125 106 213 228 219 218 187 206 203 189 120 95 122 169 208 224 232 241 248 239 237 238 241 229 232 236 239 248 258 261 255 246 256 254 242 233 228 237 249 258 215 223 245 234 219 201 221 242 251 283 250 235 273 269 281 217 263 284 284 262 237 243 249 266 247 239 239 245 257 253 250 253 250 249 248 250 251 252 254 256 256 257 254 252 249
106 100 311 262 268 243 230 182 152 142 129 102 67 30 7 299 244 232 225 226 230 235 241 227 217 231 235 229 240 249 255 248 248 246 242 239 239 247 242 248 238 217 234 237 222 200 215 228 251 251 269 260 236 276 268 171 223 234 281 304 296 267 235 235 270 261 241 256 251 252 256 252 253 254 254 251 254 256 255 257 257 251 249 246 242
66 96 75 53 37 39 10 46 87 78 76 73 68 64 288 274 272 250 243 247 246 249 257 253 224 226 238 236 237 230 230 243 244 246 237 252 249 251 246 222 246 228 231 233 225 219 217 223 240 257 247 269 247 236 264 289 284 266 235 244 271 290 294 254 217 279 281 243 270 281 257 263 265 264 267 265 257 260 268 264 253 253 253 245 237
63 66 62 64 78 74 61 58 51 51 55 43 29 10 346 340 334 300 291 280 280 279 264 277 274 275 258 231 225 233 234 244 248 247 251 258 258 262 261 224 224 224 232 228 230 229 231 227 251 239 262 267 256 264 276 256 252 259 267 215 254 260 274 290 283 247 258 279 278 266 264 260 272 277 290 283 345 313 243 245 261 259 265 266 258
55 54 55 53 55 60 62 49 42 45 46 46 10 7 6 351 328 326 321 319 324 330 331 335 335 326 303 290 284 279 271 270 267 272 254 252 251 250 261 249 238 230 232 240 239 227 231 247 253 269 272 271 279 261 257 260 259 263 264 244 257 259 265 276 275 249 228 247 269 272 254 251 236 290 272 307 13 357 345 327 337 326 295 278 267
54 55 59 60 54 53 57 61 56 48 39 18 9 2 352 341 330 316 328 333 353 11 5 355 340 339 335 314 315 316 322 344 11 24 7 18 18 6 346 310 276 265 258 254 254 241 246 252 262 264 263 274 276 275 269 276 270 268 271 267 267 283 277 288 296 318 43 254 244 254 281 45 45 240 38 28 360 357 0 349 351 348 303 284 273
49 50 52 46 40 37 43 48 48 43 44 16 358 356 347 329 316 308 327 340 348 356 351 344 332 331 336 350 2 12 36 24 22 8 1 11 16 3 0 355 348 271 256 254 284 288 267 270 272 266 281 281 297 306 314 326 326 317 298 290 283 284 285 281 277 286 10 4 322 301 307 13 6 69 72 28 24 28 12 2 356 357 356 340 326
45 48 41 47 46 41 45 49 46 41 38 14 356 359 2 15 15 353 347 345 347 21 28 33 27 22 19 16 19 36 23 18 19 5 357 355 1 3 9 11 24 48 54 14 249 245 287 290 286 291 305 329 320 328 356 338 320 307 314 311 312 309 308 301 303 304 15 340 304 303 356 10 352 42 76 47 39 42 27 19 13 4 358 340 344
64 62 53 56 50 44 43 52 57 46 41 11 360 6 8 12 12 15 355 25 53 54 50 42 28 26 24 17 15 20 17 21 14 8 5 5 8 20 31 48 62 52 42 40 43 48 137 244 298 300 27 28 351 328 334 327 324 324 323 314 319 317 315 307 314 350 27 5 1 310 26 8 6 48 57 46 40 42 41 11 9 2 360 5 18
65 65 60 61 55 56 43 47 60 49 35 14 10 10 11 13 16 31 47 56 55 50 47 40 38 36 27 28 33 30 23 23 18 0 357 345 8 44 63 71 75 57 51 42 39 37 41 47 56 57 51 39 26 1 345 336 317 306 297 290 303 313 304 299 38 44 26 21 4 358 64 6 351 53 43 31 13 34 22 15 22 8 357 360 7
52 60 51 54 47 42 32 34 43 36 21 21 19 18 16 14 21 43 43 45 46 47 46 40 35 37 40 35 34 32 28 26 8 355 355 14 40 55 64 69 77 71 68 74 61 54 61 60 59 53 41 31 28 26 14 358 343 328 322 319 11 356 334 24 35 19 28 11 19 13 89 40 351 31 32 0 349 19 355 7 358 5 358 351 346
51 40 36 42 30 38 32 28 33 25 18 15 22 27 32 21 28 38 41 54 50 51 48 41 32 39 43 43 40 34 28 27 5 360 357 20 39 41 41 43 49 48 40 50 75 60 53 60 56 46 30 27 21 19 13 359 3 339 349 44 23 342 18 39 36 37 29 3 19 15 8 42 13 1 326 358 354 357 355 354 349 353 355 3 350
58 39 38 40 23 26 28 16 22 27 0 5 24 25 42 56 63 55 51 68 55 48 48 39 39 42 45 51 52 46 38 24 7 6 3 17 39 28 24 26 26 24 4 352 343 351 7 31 32 28 33 22 20 8 18 0 6 15 43 55 349 351 54 48 64 31 325 16 18 352 14 8 326 6 352 331 326 324 330 345 347 356 355 11 26
100 62 50 50 11 10 15 11 12 27 348 350 13 16 34 65 85 89 86 82 71 49 42 30 23 54 33 48 56 57 59 51 24 24 19 24 43 30 22 24 20 16 347 342 345 344 357 7 10 6 2 14 17 11 3 358 12 39 50 52 22 48 63 53 15 311 350 352 9 348 55 355 12 26 4 354 35 310 240 326 358 1 3 4 26